You are not logged in, Click here to log in
機場資訊:LPMA Welcome to Taiwan Airways 台灣虛擬航空
ICAO: LPMA Country: 葡萄牙馬德拉聖克魯斯聖卡塔琳娜堂區
Latitude: 32.6958 Longitude: -16.7759
Total Arrivals: 12 Total Departures: 6
Latest Arrival: TP1679 (LPPT-LPMA)Arthur. Kung Latest Departure: TP1710 (LPMA-LPPR)Arthur. Kung
Scenery:
METAR : LPMA 171300Z 21009KT 9999 FEW016 25/16 Q1022

馬德拉機場FNC